Regional Weather Roundup
Issued by NWS Northern Indiana

Home | Current Version | Previous Version | Graphics & Text | Print | Product List | Glossary On
Versions: 1 2 3 4 5 6 7 8 9 10 11 12 13 14 15 16 17 18 19 20 21 22 23 24 25 26 27 28 29 30 31 32 33 34 35 36 37 38 39 40 41 42 43 44 45 46 47 48 49 50
000
ASUS43 KIWX 272300
RWRIWX

KIWX WEATHER ROUNDUP
NATIONAL WEATHER SERVICE NORTHERN INDIANA
700 PM EDT WED JUL 27 2016

NOTE: "FAIR" INDICATES FEW OR NO CLOUDS BELOW 12,000 FEET WITH NO
SIGNIFICANT WEATHER AND/OR OBSTRUCTIONS TO VISIBILITY.

* THESE STATIONS ARE NOT UNDER NWS QUALITY CONTROL. THEY ALSO MAY NOT
  REPORT WEATHER SUCH AS PRECIPITATION OR FOG.

INZ001>027-280000-
NORTHERN INDIANA

CITY           SKY/WX    TMP DP  RH WIND       PRES   REMARKS
GARY*          MOSUNNY   84  66  54 E6        29.94S
KNOX*          SUNNY     84  52  32 CALM      29.94S
SOUTH BEND     SUNNY     84  66  54 N7        29.95S
ELKHART*       SUNNY     84  72  65 N9        29.95S
GOSHEN         SUNNY     85  62  46 NE6       29.94S
MONTICELLO*    CLOUDY    84  62  48 W3        29.94F
ANGOLA*        SUNNY     88  63  42 NW6       29.95S
FORT WAYNE     MOSUNNY   87  60  40 VRB3      29.94F
PERU/GRISSOM   CLOUDY    84  67  55 W7        29.94S

$$
INZ028>050-280000-
CENTRAL INDIANA

CITY           SKY/WX    TMP DP  RH WIND       PRES   REMARKS
LAFAYETTE      CLOUDY    84  67  56 S5        29.93F
KOKOMO*        CLOUDY    84  66  54 W6        29.95S
MUNCIE*        MOSUNNY   84  66  54 VRB6      29.95F
INDIANAPOLIS   PTSUNNY   84  66  54 W9        29.95S

$$
MIZ043>046-050>051-056>058-064>065-071>073-077>080-280000-
SOUTHWEST LOWER MICHIGAN

CITY           SKY/WX    TMP DP  RH WIND       PRES   REMARKS
BATTLE CREEK   SUNNY     84  66  54 NW8       29.95F
BENTON HARBOR  SUNNY     84  62  47 CALM      29.95S
COLDWATER*     SUNNY     83  59  43 N3        29.95F
HILLSDALE*     SUNNY     84  62  47 NW6       29.96F
HOLLAND        MOSUNNY   81  67  62 W8        29.97S
GRAND RAPIDS   PTSUNNY   78  65  63 N10       29.97R
KALAMAZOO      PTSUNNY   85  66  53 NW10      29.95S
STURGIS*       SUNNY     83  65  53 NE3       29.95R
THREE RIVERS*  FAIR      85  68  55 NW7       29.95S

$$
OHZ001>008-015>018-024>025-280000-
NORTHWEST OHIO

CITY           SKY/WX    TMP DP  RH WIND       PRES   REMARKS
DEFIANCE       SUNNY     90  58  33 CALM      29.92F
FINDLAY        SUNNY     89  57  33 N6        29.92F
TOLEDO EXPRESS SUNNY     87  64  46 NW6       29.93F
TOLEDO METCALF PTSUNNY   87  65  47 E7        29.94S
LIMA           MOSUNNY   84  69  60 NE3       29.94F

$$
AND FOR LAKE MICHIGAN COASTAL AND OPEN LAKE BUOY OBSERVATIONS

STATION/POSITION TEMP    WIND        PRES    VSBY  WAVE
                 AIR SEA DIR/SP/G                  HT/PER
                 (F)     (DEG/KT/KT) (MB)    (MI)  (FT/S)
CALUMET HARBOR    81      80/  8/ 12 1013.2F
MICHIGAN CITY     79      30/  7/  8   N/A
BURNS HARBOR      81      80/ 10/ 12 1014.2F
SAINT JOSEPH      82      10/  4/  9 1015.2S
SOUTH LAKE BUOY   78 78  150/  4/  4 1013.6
4 MI NW BRIDGMAN  78 80   20/  8/  8 1013.8F         0
MICHIGAN CITY     79 78   60/  8/  8   N/A           0

$$
&&




USA.gov is the U.S. government's official web portal to all federal, state and local government web resources and services.